This is the latest recevied weather packets stored in our database for station/object KC5DAQ-29. If no packets are shown the sender has not sent any weather packets the latest 1 day(s).
| Time | Temp. | Humidity | Pressure | Rain* | Wind** | Luminosity | Snow |
|---|---|---|---|---|---|---|---|
| 1778012823 | 28.89° C | 100% | 1005.4 hPa | 0 mm | 1.79 m/s, 154° | 422 W/m² | - |
| 1778012763 | 28.89° C | 100% | 1005.4 hPa | 0 mm | 1.79 m/s, 195° | 441 W/m² | - |
| 1778012705 | 28.89° C | 100% | 1005.4 hPa | 0 mm | 1.79 m/s, 164° | 461 W/m² | - |
| 1778012643 | 28.89° C | 100% | 1005.4 hPa | 0 mm | 2.24 m/s, 137° | 461 W/m² | - |
| 1778012583 | 29.44° C | 100% | 1005.4 hPa | 0 mm | 1.79 m/s, 133° | 461 W/m² | - |
| 1778012523 | 29.44° C | 100% | 1005.5 hPa | 0 mm | 2.24 m/s, 142° | 461 W/m² | - |
| 1778012463 | 29.44° C | 100% | 1005.5 hPa | 0 mm | 2.68 m/s, 161° | 403 W/m² | - |
| 1778012402 | 29.44° C | 100% | 1005.5 hPa | 0 mm | 1.79 m/s, 180° | 336 W/m² | - |
| 1778012343 | 29.44° C | 100% | 1005.5 hPa | 0 mm | 1.34 m/s, 152° | 336 W/m² | - |
| 1778012282 | 29.44° C | 100% | 1005.5 hPa | 0 mm | 0.89 m/s, 212° | 411 W/m² | - |
| 1778012224 | 28.89° C | 100% | 1005.5 hPa | 0 mm | 0.89 m/s, 120° | 411 W/m² | - |
| 1778012163 | 28.89° C | 100% | 1005.6 hPa | 0 mm | 0.89 m/s, 165° | 411 W/m² | - |
| 1778012103 | 28.89° C | 100% | 1005.6 hPa | 0 mm | 1.34 m/s, 173° | 440 W/m² | - |
| 1778012042 | 28.89° C | 100% | 1005.6 hPa | 0 mm | 2.24 m/s, 176° | 450 W/m² | - |
| 1778011983 | 28.89° C | 100% | 1005.6 hPa | 0 mm | 1.79 m/s, 169° | 450 W/m² | - |
| 1778011927 | 28.89° C | 100% | 1005.6 hPa | 0 mm | 1.34 m/s, 166° | 447 W/m² | - |
| 1778011862 | 28.89° C | 100% | 1005.7 hPa | 0 mm | 2.24 m/s, 152° | 468 W/m² | - |
| 1778011803 | 28.89° C | 100% | 1005.7 hPa | 0 mm | 3.13 m/s, 151° | 482 W/m² | - |
| 1778011743 | 28.89° C | 100% | 1005.6 hPa | 0 mm | 2.68 m/s, 210° | 482 W/m² | - |
| 1778011684 | 28.89° C | 100% | 1005.7 hPa | 0 mm | 2.68 m/s, 251° | 552 W/m² | - |
| 1778011623 | 28.89° C | 100% | 1005.7 hPa | 0 mm | 2.24 m/s, 210° | 587 W/m² | - |
| 1778011562 | 28.33° C | 100% | 1005.7 hPa | 0 mm | 1.79 m/s, 244° | 608 W/m² | - |
| 1778011503 | 28.33° C | 100% | 1005.8 hPa | 0 mm | 1.79 m/s, 203° | 533 W/m² | - |
| 1778011443 | 28.33° C | 100% | 1005.7 hPa | 0 mm | 2.68 m/s, 237° | 533 W/m² | - |
| 1778011383 | 28.33° C | 100% | 1005.8 hPa | 0 mm | 3.58 m/s, 157° | 744 W/m² | - |
* Rain latest hour (hover to see other rain measurements)
** Current wind speed in m/s (hover to see current wind gust speed)